Location: Antoign�
(47.0844°N, 0.1131°W)
Time: 01:27:47
(UTC+00:00)

SJ 16-02 - Pass Details

Date: 03 March 2021
Orbit: 605 x 617 km, 75.0° (Epoch: 16 April)

Event Time Altitude Azimuth Distance (km) Brightness Sun altitude
Rises 19:33:55 0° 347° (NNW) 2,883 5.1 -18.6°
Reaches altitude 10° 19:36:27 10° 0° (N) 1,976 4.1 -19.0°
Enters shadow 19:39:33 26° 43° (NE) 1,215 2.6 -19.5°
